BAW2 KJFK-EGLC

Flight info

Callsign BAW2
Flight time N/A
Altitude 37000
Route SKORR DCT LLUND Q22 FOXWD DCT COPLY Q475 PERLU DCT NICSO/M077F370 NATX ELSOX DCT TUVEN/N0441F370 DCT HON HON1C
Aircraft A319/M-SDE3FGHIRWY/LB1

Departure

Time 2026-05-06 02:22
Airport John F. Kennedy International Airport (KJFK)

Arrival

Time N/A
Airport London City Airport (EGLC)
Time Latitude Longitude Altitude Speed Heading
2026-05-06 01:25 40.64923 -73.78436 16 ft 0 kts 76°
2026-05-06 02:07 40.64920 -73.78453 16 ft 4 kts 79°
2026-05-06 02:08 40.64913 -73.78486 16 ft 3 kts 61°
2026-05-06 02:08 40.64923 -73.78488 19 ft 4 kts 351°
2026-05-06 02:08 40.64950 -73.78493 16 ft 3 kts 359°
2026-05-06 02:08 40.64973 -73.78494 16 ft 4 kts 359°
2026-05-06 02:09 40.65000 -73.78492 16 ft 3 kts
2026-05-06 02:09 40.65021 -73.78489 16 ft 4 kts
2026-05-06 02:09 40.65048 -73.78485 16 ft 4 kts
2026-05-06 02:09 40.65069 -73.78480 16 ft 3 kts 10°
2026-05-06 02:10 40.65095 -73.78472 16 ft 3 kts 13°
2026-05-06 02:10 40.65099 -73.78471 16 ft 0 kts 13°
2026-05-06 02:13 40.65111 -73.78467 16 ft 4 kts 13°
2026-05-06 02:13 40.65136 -73.78459 16 ft 4 kts 18°
2026-05-06 02:13 40.65161 -73.78444 16 ft 4 kts 24°
2026-05-06 02:13 40.65191 -73.78426 17 ft 5 kts 25°
2026-05-06 02:14 40.65229 -73.78402 16 ft 7 kts 25°
2026-05-06 02:14 40.65249 -73.78353 16 ft 7 kts 96°
2026-05-06 02:14 40.65226 -73.78290 17 ft 8 kts 120°
2026-05-06 02:14 40.65201 -73.78233 16 ft 7 kts 120°
2026-05-06 02:15 40.65175 -73.78179 16 ft 7 kts 122°
2026-05-06 02:15 40.65151 -73.78126 16 ft 7 kts 121°
2026-05-06 02:15 40.65126 -73.78070 16 ft 7 kts 121°
2026-05-06 02:15 40.65099 -73.78013 16 ft 9 kts 121°
2026-05-06 02:16 40.65057 -73.77919 16 ft 14 kts 122°
2026-05-06 02:16 40.64998 -73.77790 16 ft 18 kts 121°
2026-05-06 02:16 40.64927 -73.77634 16 ft 22 kts 121°
2026-05-06 02:16 40.64845 -73.77449 16 ft 25 kts 120°
2026-05-06 02:17 40.64767 -73.77276 16 ft 19 kts 121°
2026-05-06 02:17 40.64779 -73.77155 18 ft 14 kts 54°
2026-05-06 02:17 40.64837 -73.77052 21 ft 13 kts 53°
2026-05-06 02:17 40.64893 -73.76948 19 ft 15 kts 54°
2026-05-06 02:18 40.64960 -73.76824 16 ft 18 kts 54°
2026-05-06 02:18 40.64968 -73.76682 17 ft 17 kts 121°
2026-05-06 02:18 40.64922 -73.76585 15 ft 0 kts 119°
2026-05-06 02:19 40.64912 -73.76564 15 ft 6 kts 122°
2026-05-06 02:20 40.64818 -73.76517 16 ft 11 kts 209°
2026-05-06 02:20 40.64789 -73.76539 16 ft 0 kts 210°
2026-05-06 02:21 40.64759 -73.76562 17 ft 23 kts 210°
2026-05-06 02:21 40.64456 -73.76797 15 ft 80 kts 211°
2026-05-06 02:21 40.63825 -73.77288 19 ft 130 kts 211°
2026-05-06 02:21 40.62956 -73.78000 321 ft 149 kts 210°
2026-05-06 02:22 40.62100 -73.78682 1055 ft 138 kts 209°
2026-05-06 02:22 40.61282 -73.79355 1645 ft 146 kts 217°
2026-05-06 02:22 40.60588 -73.80464 1890 ft 175 kts 239°
2026-05-06 02:22 40.60287 -73.82172 2240 ft 207 kts 254°
2026-05-06 02:23 40.60241 -73.84166 2845 ft 233 kts 274°
2026-05-06 02:23 40.61026 -73.86131 3691 ft 260 kts 306°
2026-05-06 02:23 40.62644 -73.87304 4630 ft 283 kts 341°
2026-05-06 02:23 40.64679 -73.87233 5610 ft 296 kts
2026-05-06 02:24 40.66674 -73.86581 6558 ft 300 kts 12°
2026-05-06 02:24 40.68694 -73.85701 7453 ft 303 kts 15°
2026-05-06 02:24 40.70662 -73.84781 8307 ft 305 kts 16°
2026-05-06 02:24 40.72649 -73.83865 9184 ft 306 kts 15°
2026-05-06 02:25 40.74688 -73.82966 10032 ft 308 kts 15°
2026-05-06 02:25 40.76794 -73.82078 10396 ft 328 kts 14°
2026-05-06 02:25 40.79057 -73.81154 10608 ft 351 kts 14°
2026-05-06 02:25 40.81423 -73.80204 11106 ft 360 kts 14°
2026-05-06 02:26 40.83817 -73.79077 11740 ft 369 kts 23°
2026-05-06 02:26 40.86027 -73.77329 12387 ft 376 kts 36°
2026-05-06 02:26 40.87951 -73.74952 13033 ft 382 kts 49°
2026-05-06 02:26 40.89516 -73.72128 13682 ft 386 kts 56°
2026-05-06 02:27 40.91073 -73.69167 14272 ft 390 kts 55°
2026-05-06 02:27 40.92640 -73.66209 14851 ft 394 kts 54°
2026-05-06 02:27 40.94226 -73.63230 15421 ft 399 kts 54°
2026-05-06 02:27 40.95831 -73.60218 15986 ft 403 kts 54°
2026-05-06 02:28 40.97452 -73.57171 16566 ft 407 kts 54°
2026-05-06 02:28 40.99065 -73.54129 17122 ft 411 kts 54°
2026-05-06 02:28 41.00718 -73.51002 17696 ft 415 kts 54°
2026-05-06 02:28 41.02377 -73.47858 18238 ft 420 kts 54°
2026-05-06 02:29 41.04064 -73.44665 18741 ft 424 kts 54°
2026-05-06 02:29 41.05757 -73.41462 19249 ft 427 kts 54°
2026-05-06 02:29 41.07469 -73.38213 19771 ft 431 kts 54°
2026-05-06 02:29 41.09183 -73.34952 20287 ft 434 kts 54°
2026-05-06 02:30 41.10909 -73.31658 20795 ft 437 kts 54°
2026-05-06 02:30 41.12656 -73.28320 21309 ft 441 kts 54°
2026-05-06 02:30 41.14417 -73.24961 21813 ft 444 kts 54°
2026-05-06 02:30 41.16184 -73.21590 22279 ft 447 kts 54°
2026-05-06 02:31 41.17966 -73.18190 22748 ft 450 kts 54°
2026-05-06 02:31 41.19760 -73.14760 23221 ft 453 kts 54°
2026-05-06 02:31 41.21559 -73.11314 23648 ft 456 kts 54°
2026-05-06 02:31 41.23349 -73.07881 24032 ft 458 kts 54°
2026-05-06 02:32 41.25161 -73.04391 24432 ft 460 kts 54°
2026-05-06 02:32 41.26984 -73.00875 24856 ft 462 kts 54°
2026-05-06 02:32 41.28808 -72.97353 25251 ft 464 kts 55°
2026-05-06 02:32 41.30584 -72.93757 25639 ft 466 kts 57°
2026-05-06 02:33 41.32283 -72.90077 26024 ft 468 kts 59°
2026-05-06 02:33 41.33399 -72.87558 26287 ft 469 kts 59°
2026-05-06 02:33 41.37204 -72.78758 27158 ft 474 kts 59°
2026-05-06 02:34 41.38862 -72.74957 27519 ft 476 kts 59°
2026-05-06 02:34 41.40549 -72.71144 27881 ft 478 kts 58°
2026-05-06 02:34 41.42256 -72.67330 28262 ft 480 kts 58°
2026-05-06 02:34 41.43980 -72.63498 28619 ft 482 kts 58°
2026-05-06 02:35 41.45712 -72.59648 28967 ft 485 kts 58°
2026-05-06 02:35 41.47440 -72.55786 29313 ft 486 kts 58°
2026-05-06 02:35 41.49171 -72.51898 29636 ft 488 kts 58°
2026-05-06 02:35 41.50908 -72.47981 29968 ft 490 kts 58°
2026-05-06 02:36 41.52644 -72.44048 30247 ft 492 kts 58°
2026-05-06 02:36 41.54381 -72.40107 30525 ft 494 kts 58°
2026-05-06 02:36 41.56125 -72.36150 30823 ft 495 kts 58°
2026-05-06 02:36 41.57850 -72.32239 31207 ft 493 kts 58°
2026-05-06 02:37 41.59609 -72.28250 31615 ft 492 kts 57°
2026-05-06 02:37 41.61319 -72.24370 32007 ft 490 kts 57°
2026-05-06 02:37 41.63049 -72.20443 32410 ft 489 kts 57°
2026-05-06 02:37 41.64772 -72.16531 32810 ft 488 kts 57°
2026-05-06 02:38 41.66493 -72.12611 33224 ft 487 kts 57°
2026-05-06 02:38 41.68196 -72.08718 33637 ft 485 kts 57°
2026-05-06 02:38 41.69898 -72.04818 34035 ft 484 kts 56°
2026-05-06 02:38 41.71597 -72.00921 34399 ft 482 kts 56°
2026-05-06 02:39 41.73283 -71.97051 34779 ft 481 kts 57°
2026-05-06 02:39 41.74964 -71.93190 35153 ft 479 kts 57°
2026-05-06 02:39 41.76641 -71.89340 35513 ft 477 kts 57°
2026-05-06 02:39 41.78313 -71.85493 35860 ft 476 kts 57°
2026-05-06 02:40 41.79971 -71.81670 36211 ft 474 kts 56°
2026-05-06 02:40 41.81817 -71.78040 36526 ft 470 kts 49°
2026-05-06 02:40 41.83793 -71.74561 36828 ft 469 kts 50°
2026-05-06 02:40 41.85771 -71.71078 36944 ft 468 kts 50°
2026-05-06 02:41 41.87745 -71.67595 36960 ft 468 kts 50°
2026-05-06 02:41 41.91672 -71.60637 36961 ft 468 kts 50°
2026-05-06 02:42 41.95574 -71.53711 36963 ft 468 kts 50°
2026-05-06 02:42 41.99500 -71.46732 36962 ft 468 kts 50°
2026-05-06 02:43 42.03423 -71.39748 36955 ft 468 kts 50°
2026-05-06 02:43 42.07344 -71.32740 36937 ft 469 kts 50°
2026-05-06 02:44 42.11260 -71.25714 36940 ft 469 kts 51°
2026-05-06 02:44 42.15169 -71.18688 36938 ft 469 kts 51°
2026-05-06 02:45 42.19086 -71.11639 36942 ft 469 kts 51°
2026-05-06 02:45 42.22996 -71.04586 36946 ft 469 kts 51°
2026-05-06 02:46 42.26902 -70.97520 36924 ft 469 kts 51°
2026-05-06 02:46 42.30776 -70.90491 36923 ft 470 kts 51°
2026-05-06 02:47 42.34696 -70.83369 36923 ft 470 kts 51°
2026-05-06 02:47 42.38577 -70.76310 36918 ft 470 kts 51°
2026-05-06 02:48 42.42472 -70.69207 36919 ft 470 kts 51°
2026-05-06 02:48 42.46376 -70.62063 36917 ft 471 kts 51°
2026-05-06 02:49 42.50070 -70.54737 36917 ft 474 kts 60°
2026-05-06 02:49 42.52316 -70.47946 36921 ft 475 kts 65°
2026-05-06 02:50 42.54961 -70.39718 36926 ft 476 kts 64°
2026-05-06 02:50 42.57602 -70.31502 36934 ft 476 kts 64°
2026-05-06 02:51 42.60242 -70.23248 36937 ft 476 kts 65°
2026-05-06 02:51 42.62875 -70.14992 36941 ft 477 kts 65°
2026-05-06 02:52 42.65507 -70.06703 36950 ft 477 kts 65°
2026-05-06 02:52 42.68119 -69.98414 36949 ft 478 kts 65°
2026-05-06 02:53 42.70707 -69.90158 36950 ft 478 kts 65°
2026-05-06 02:53 42.73304 -69.81836 36951 ft 478 kts 65°
2026-05-06 02:54 42.75896 -69.73498 36953 ft 478 kts 65°
2026-05-06 02:54 42.78482 -69.65163 36958 ft 478 kts 65°
2026-05-06 02:55 42.81073 -69.56800 36958 ft 479 kts 65°
2026-05-06 02:55 42.83645 -69.48445 36960 ft 479 kts 65°
2026-05-06 02:56 42.86203 -69.40121 36967 ft 479 kts 65°
2026-05-06 02:56 42.88764 -69.31754 36965 ft 478 kts 65°
2026-05-06 02:57 42.91321 -69.23358 36972 ft 478 kts 65°
2026-05-06 02:57 42.93872 -69.14972 36977 ft 478 kts 65°
2026-05-06 02:58 42.96409 -69.06600 36983 ft 478 kts 65°
2026-05-06 02:58 42.98951 -68.98208 36983 ft 477 kts 66°
2026-05-06 02:59 43.01464 -68.89872 36980 ft 477 kts 66°
2026-05-06 02:59 43.03989 -68.81491 36985 ft 477 kts 66°
2026-05-06 03:00 43.05913 -68.75063 36989 ft 477 kts 66°
2026-05-06 03:01 43.06728 -68.72330 36983 ft 476 kts 66°
2026-05-06 03:02 43.08358 -68.66862 36984 ft 476 kts 66°
2026-05-06 03:02 43.10841 -68.58523 36997 ft 476 kts 66°
2026-05-06 03:03 43.13324 -68.50122 36994 ft 476 kts 66°
2026-05-06 03:03 43.15814 -68.41712 36992 ft 476 kts 66°
2026-05-06 03:04 43.18301 -68.33315 36994 ft 476 kts 66°
2026-05-06 03:04 43.20772 -68.24907 36996 ft 476 kts 67°
2026-05-06 03:05 43.23222 -68.16479 36996 ft 476 kts 67°
2026-05-06 03:05 43.25682 -68.08057 36998 ft 476 kts 67°
2026-05-06 03:06 43.28145 -67.99622 37000 ft 476 kts 67°
2026-05-06 03:06 43.30595 -67.91185 37002 ft 476 kts 67°
2026-05-06 03:07 43.33033 -67.82743 37000 ft 476 kts 67°
2026-05-06 03:07 43.35451 -67.74339 37002 ft 476 kts 67°
2026-05-06 03:08 43.37880 -67.65872 37003 ft 476 kts 67°
2026-05-06 03:08 43.40299 -67.57412 37002 ft 476 kts 67°
2026-05-06 03:09 43.42719 -67.48921 37001 ft 476 kts 67°
2026-05-06 03:09 43.45135 -67.40410 36999 ft 476 kts 67°
2026-05-06 03:10 43.47529 -67.31955 37004 ft 477 kts 68°
2026-05-06 03:10 43.49931 -67.23437 37003 ft 477 kts 68°
2026-05-06 03:11 43.52327 -67.14911 37005 ft 477 kts 68°
2026-05-06 03:11 43.54727 -67.06373 37009 ft 478 kts 68°
2026-05-06 03:12 43.57133 -66.97828 37014 ft 478 kts 66°
2026-05-06 03:12 43.59812 -66.89445 37012 ft 477 kts 63°
2026-05-06 03:13 43.62640 -66.81213 37010 ft 478 kts 63°
2026-05-06 03:13 43.65438 -66.72880 37009 ft 478 kts 64°
2026-05-06 03:14 43.68164 -66.64501 37009 ft 478 kts 65°
2026-05-06 03:14 43.70868 -66.56090 37015 ft 478 kts 65°
2026-05-06 03:15 43.73583 -66.47692 37018 ft 479 kts 65°
2026-05-06 03:15 43.76302 -66.39293 37026 ft 479 kts 65°
2026-05-06 03:16 43.78993 -66.30923 37032 ft 479 kts 65°
2026-05-06 03:16 43.81699 -66.22506 37036 ft 478 kts 65°
2026-05-06 03:17 43.84394 -66.14083 37037 ft 478 kts 65°
2026-05-06 03:17 43.87086 -66.05646 37041 ft 478 kts 65°
2026-05-06 03:18 43.89772 -65.97203 37040 ft 478 kts 65°
2026-05-06 03:18 43.92437 -65.88772 37045 ft 477 kts 66°
2026-05-06 03:19 43.95100 -65.80331 37054 ft 477 kts 66°
2026-05-06 03:19 43.97758 -65.71899 37060 ft 477 kts 66°
2026-05-06 03:20 44.01706 -65.59291 37071 ft 476 kts 66°
2026-05-06 03:20 44.04346 -65.50838 37066 ft 476 kts 66°
2026-05-06 03:21 44.06977 -65.42389 37064 ft 476 kts 66°
2026-05-06 03:21 44.09597 -65.33929 37058 ft 476 kts 66°
2026-05-06 03:22 44.12206 -65.25502 37058 ft 476 kts 66°
2026-05-06 03:22 44.14821 -65.17021 37057 ft 476 kts 66°
2026-05-06 03:23 44.17424 -65.08542 37058 ft 476 kts 67°
2026-05-06 03:23 44.20018 -65.00044 37061 ft 477 kts 67°
2026-05-06 03:24 44.22609 -64.91544 37055 ft 477 kts 67°
2026-05-06 03:24 44.25203 -64.83019 37055 ft 477 kts 67°
2026-05-06 03:25 44.27789 -64.74496 37049 ft 477 kts 67°
2026-05-06 03:25 44.30351 -64.66020 37046 ft 477 kts 67°
2026-05-06 03:26 44.32922 -64.57480 37048 ft 477 kts 67°
2026-05-06 03:26 44.35484 -64.48937 37043 ft 477 kts 67°
2026-05-06 03:27 44.38042 -64.40392 37036 ft 477 kts 67°
2026-05-06 03:27 44.40595 -64.31827 37040 ft 477 kts 67°
2026-05-06 03:28 44.43147 -64.23244 37042 ft 477 kts 67°
2026-05-06 03:28 44.45685 -64.14671 37039 ft 477 kts 68°
2026-05-06 03:29 44.48225 -64.06059 37047 ft 477 kts 68°
2026-05-06 03:29 44.50734 -63.97521 37043 ft 477 kts 67°
2026-05-06 03:30 44.53286 -63.88944 37051 ft 477 kts 67°
2026-05-06 03:30 44.55843 -63.80370 37052 ft 477 kts 67°
2026-05-06 03:31 44.58388 -63.71763 37055 ft 477 kts 68°
2026-05-06 03:31 44.60912 -63.63162 37057 ft 477 kts 68°
2026-05-06 03:32 44.63419 -63.54602 37062 ft 477 kts 68°
2026-05-06 03:32 44.65941 -63.45993 37064 ft 477 kts 68°
2026-05-06 03:33 44.68458 -63.37359 37068 ft 477 kts 68°
2026-05-06 03:33 44.70956 -63.28737 37074 ft 476 kts 68°
2026-05-06 03:34 44.73453 -63.20102 37076 ft 476 kts 68°
2026-05-06 03:34 44.75952 -63.11460 37081 ft 476 kts 68°
2026-05-06 03:35 44.78418 -63.02881 37089 ft 476 kts 68°
2026-05-06 03:35 44.80892 -62.94223 37095 ft 476 kts 68°
2026-05-06 03:36 44.83363 -62.85583 37101 ft 476 kts 68°
2026-05-06 03:36 44.85823 -62.76921 37106 ft 476 kts 68°
2026-05-06 03:37 44.88279 -62.68255 37110 ft 475 kts 68°
2026-05-06 03:37 44.90726 -62.59606 37108 ft 475 kts 68°
2026-05-06 03:38 44.93153 -62.50973 37110 ft 475 kts 68°
2026-05-06 03:38 44.95586 -62.42290 37111 ft 476 kts 68°
2026-05-06 03:39 44.98020 -62.33594 37112 ft 476 kts 68°
2026-05-06 03:39 45.00438 -62.24901 37116 ft 476 kts 69°
2026-05-06 03:40 45.02849 -62.16185 37115 ft 476 kts 69°
2026-05-06 03:40 45.05241 -62.07531 37112 ft 476 kts 69°
2026-05-06 03:41 45.07256 -62.00235 37109 ft 476 kts 69°
2026-05-06 03:41 45.10051 -61.90066 37113 ft 477 kts 69°
2026-05-06 03:42 45.12149 -61.82768 37111 ft 477 kts 66°
2026-05-06 03:42 45.14920 -61.74295 37112 ft 478 kts 64°
2026-05-06 03:43 45.17786 -61.65803 37112 ft 478 kts 64°
2026-05-06 03:43 45.20593 -61.57231 37105 ft 479 kts 65°
2026-05-06 03:44 45.23347 -61.48590 37106 ft 479 kts 66°
2026-05-06 03:44 45.26085 -61.39956 37101 ft 480 kts 65°
2026-05-06 03:45 45.28841 -61.31319 37110 ft 480 kts 65°
2026-05-06 03:45 45.31574 -61.22734 37105 ft 480 kts 65°
2026-05-06 03:46 45.34312 -61.14064 37105 ft 481 kts 65°
2026-05-06 03:46 45.37056 -61.05383 37105 ft 481 kts 65°
2026-05-06 03:47 45.39786 -60.96706 37110 ft 480 kts 65°
2026-05-06 03:47 45.42506 -60.88022 37115 ft 480 kts 65°
2026-05-06 03:48 45.45226 -60.79331 37120 ft 479 kts 65°
2026-05-06 03:48 45.47915 -60.70704 37122 ft 479 kts 66°
2026-05-06 03:49 45.50603 -60.62025 37121 ft 479 kts 66°
2026-05-06 03:49 45.53282 -60.53340 37124 ft 478 kts 66°
2026-05-06 03:50 45.55954 -60.44660 37123 ft 478 kts 66°
2026-05-06 03:50 45.58625 -60.35955 37121 ft 477 kts 66°
2026-05-06 03:51 45.61286 -60.27260 37119 ft 477 kts 66°
2026-05-06 03:51 45.63943 -60.18568 37122 ft 477 kts 66°
2026-05-06 03:52 45.66586 -60.09860 37121 ft 477 kts 66°
2026-05-06 03:52 45.69206 -60.01206 37123 ft 478 kts 66°
2026-05-06 03:53 45.71839 -59.92490 37116 ft 478 kts 66°
2026-05-06 03:53 45.74471 -59.83743 37114 ft 478 kts 66°
2026-05-06 03:54 45.77099 -59.74989 37121 ft 479 kts 66°
2026-05-06 03:54 45.79720 -59.66227 37125 ft 479 kts 66°
2026-05-06 03:55 45.82337 -59.57438 37124 ft 479 kts 66°
2026-05-06 03:55 45.84943 -59.48641 37120 ft 480 kts 66°
2026-05-06 03:56 45.87552 -59.39802 37131 ft 480 kts 66°
2026-05-06 03:56 45.90148 -59.30982 37127 ft 480 kts 66°
2026-05-06 03:57 45.92715 -59.22205 37123 ft 480 kts 66°
2026-05-06 03:57 45.95312 -59.13364 37136 ft 480 kts 66°
2026-05-06 03:58 45.97900 -59.04501 37134 ft 480 kts 66°
2026-05-06 03:58 46.00465 -58.95634 37148 ft 480 kts 66°
2026-05-06 03:59 46.03032 -58.86750 37150 ft 481 kts 66°
2026-05-06 03:59 46.05597 -58.77857 37141 ft 481 kts 66°
2026-05-06 04:00 46.08158 -58.68965 37150 ft 481 kts 66°
2026-05-06 04:00 46.10693 -58.60129 37153 ft 481 kts 66°
2026-05-06 04:01 46.13234 -58.51212 37148 ft 480 kts 66°
2026-05-06 04:01 46.15761 -58.42285 37152 ft 481 kts 67°
2026-05-06 04:02 46.18293 -58.33331 37181 ft 480 kts 66°
2026-05-06 04:02 46.20798 -58.24447 37156 ft 480 kts 66°
2026-05-06 04:03 46.23315 -58.15516 37178 ft 480 kts 66°
2026-05-06 04:03 46.25826 -58.06574 37166 ft 480 kts 67°
2026-05-06 04:04 46.28319 -57.97608 37182 ft 480 kts 67°
2026-05-06 04:04 46.30813 -57.88633 37172 ft 480 kts 67°
2026-05-06 04:05 46.33276 -57.79728 37183 ft 480 kts 67°
2026-05-06 04:05 46.35754 -57.70749 37172 ft 480 kts 67°
2026-05-06 04:06 46.38227 -57.61764 37187 ft 480 kts 67°
2026-05-06 04:06 46.40692 -57.52759 37174 ft 480 kts 67°
2026-05-06 04:07 46.43144 -57.43763 37190 ft 480 kts 67°
2026-05-06 04:07 46.45593 -57.34734 37180 ft 480 kts 67°
2026-05-06 04:08 46.48019 -57.25764 37194 ft 480 kts 67°
2026-05-06 04:08 46.50459 -57.16723 37181 ft 481 kts 67°
2026-05-06 04:09 46.52887 -57.07686 37186 ft 481 kts 67°
2026-05-06 04:09 46.55315 -56.98627 37187 ft 481 kts 67°
2026-05-06 04:10 46.57735 -56.89568 37195 ft 481 kts 67°
2026-05-06 04:10 46.60129 -56.80545 37182 ft 481 kts 67°
2026-05-06 04:11 46.62533 -56.71450 37195 ft 482 kts 67°
2026-05-06 04:11 46.64933 -56.62331 37184 ft 482 kts 67°
2026-05-06 04:12 46.67332 -56.53215 37199 ft 482 kts 68°
2026-05-06 04:12 46.69707 -56.44121 37190 ft 483 kts 68°
2026-05-06 04:13 46.72085 -56.34963 37195 ft 483 kts 68°
2026-05-06 04:13 46.74467 -56.25798 37184 ft 484 kts 68°
2026-05-06 04:14 46.76851 -56.16606 37197 ft 484 kts 68°
2026-05-06 04:14 46.79219 -56.07380 37184 ft 485 kts 68°
2026-05-06 04:15 46.81565 -55.98207 37199 ft 485 kts 68°
2026-05-06 04:15 46.83924 -55.88955 37192 ft 486 kts 68°
2026-05-06 04:16 46.86278 -55.79705 37211 ft 486 kts 68°
2026-05-06 04:16 46.88632 -55.70415 37212 ft 487 kts 68°
2026-05-06 04:17 46.90966 -55.61118 37223 ft 487 kts 68°
2026-05-06 04:17 46.93292 -55.51862 37214 ft 488 kts 68°
2026-05-06 04:18 46.95631 -55.42518 37230 ft 488 kts 68°
2026-05-06 04:18 46.97962 -55.33182 37212 ft 489 kts 68°
2026-05-06 04:19 47.00290 -55.23826 37228 ft 489 kts 68°
2026-05-06 04:19 47.02605 -55.14468 37213 ft 489 kts 69°
2026-05-06 04:20 47.04898 -55.05106 37228 ft 490 kts 69°
2026-05-06 04:20 47.07199 -54.95704 37220 ft 490 kts 69°
2026-05-06 04:21 47.09503 -54.86286 37231 ft 491 kts 69°
2026-05-06 04:21 47.11802 -54.76838 37223 ft 491 kts 69°
2026-05-06 04:22 47.14083 -54.67383 37228 ft 491 kts 69°
2026-05-06 04:23 47.17502 -54.53165 37215 ft 492 kts 69°
2026-05-06 04:23 47.19764 -54.43680 37225 ft 492 kts 69°
2026-05-06 04:24 47.22026 -54.34181 37211 ft 492 kts 69°
2026-05-06 04:24 47.24278 -54.24728 37207 ft 492 kts 69°
2026-05-06 04:25 47.26530 -54.15194 37206 ft 493 kts 69°
2026-05-06 04:25 47.28740 -54.05643 37200 ft 493 kts 73°
2026-05-06 04:26 47.30010 -53.95711 37199 ft 494 kts 80°
2026-05-06 04:26 47.31112 -53.85703 37206 ft 495 kts 80°
2026-05-06 04:27 47.32214 -53.75680 37203 ft 495 kts 80°
2026-05-06 04:27 47.33308 -53.65649 37210 ft 495 kts 81°
2026-05-06 04:28 47.34381 -53.55678 37208 ft 496 kts 81°
2026-05-06 04:28 47.35458 -53.45633 37213 ft 496 kts 81°
2026-05-06 04:29 47.36527 -53.35568 37209 ft 497 kts 81°
2026-05-06 04:29 47.37586 -53.25474 37211 ft 497 kts 81°
2026-05-06 04:30 47.38639 -53.15390 37202 ft 497 kts 81°
2026-05-06 04:30 47.39686 -53.05300 37202 ft 498 kts 81°
2026-05-06 04:31 47.40723 -52.95185 37187 ft 499 kts 81°
2026-05-06 04:31 47.41233 -52.90126 36855 ft 496 kts 78°
2026-05-06 04:31 47.41731 -52.85145 37073 ft 488 kts 78°
2026-05-06 04:31 47.42058 -52.81862 37201 ft 487 kts 78°
2026-05-06 04:32 47.42551 -52.76930 37185 ft 485 kts 78°
2026-05-06 04:32 47.43698 -52.65483 37192 ft 484 kts 78°
2026-05-06 04:33 47.44517 -52.57253 37195 ft 483 kts 78°
2026-05-06 04:33 47.45483 -52.47407 37198 ft 483 kts 78°
2026-05-06 04:34 47.46440 -52.37599 37206 ft 483 kts 78°
2026-05-06 04:34 47.47389 -52.27778 37218 ft 482 kts 78°
2026-05-06 04:35 47.48316 -52.18009 37226 ft 482 kts 78°
2026-05-06 04:35 47.49229 -52.08201 37232 ft 482 kts 78°
2026-05-06 04:36 47.50432 -51.98504 37233 ft 475 kts 68°
2026-05-06 04:36 47.52768 -51.89432 37230 ft 472 kts 64°
2026-05-06 04:37 47.55134 -51.80340 37225 ft 472 kts 64°
2026-05-06 04:37 47.57470 -51.71251 37224 ft 472 kts 64°
2026-05-06 04:38 47.59789 -51.62201 37218 ft 472 kts 64°
2026-05-06 04:38 47.62112 -51.53111 37219 ft 472 kts 64°
2026-05-06 04:39 47.64440 -51.44027 37215 ft 472 kts 64°
2026-05-06 04:39 47.66767 -51.34931 37216 ft 471 kts 64°
2026-05-06 04:40 47.69076 -51.25811 37215 ft 471 kts 64°
2026-05-06 04:40 47.71375 -51.16682 37220 ft 471 kts 64°
2026-05-06 04:41 47.73643 -51.07627 37219 ft 471 kts 64°
2026-05-06 04:41 47.75931 -50.98486 37220 ft 471 kts 64°
2026-05-06 04:42 47.78213 -50.89359 37225 ft 471 kts 64°
2026-05-06 04:42 47.80483 -50.80222 37220 ft 471 kts 65°
2026-05-06 04:43 47.82739 -50.71086 37222 ft 470 kts 65°
2026-05-06 04:43 47.84980 -50.62006 37222 ft 470 kts 65°
2026-05-06 04:44 47.87226 -50.52853 37225 ft 470 kts 65°
2026-05-06 04:44 47.89459 -50.43694 37221 ft 470 kts 65°
2026-05-06 04:45 47.91687 -50.34545 37230 ft 469 kts 65°
2026-05-06 04:45 47.93906 -50.25389 37229 ft 469 kts 65°
2026-05-06 04:46 47.96115 -50.16227 37227 ft 469 kts 65°
2026-05-06 04:46 47.98311 -50.07053 37224 ft 469 kts 65°
2026-05-06 04:47 48.00327 -49.97835 37222 ft 474 kts 73°
2026-05-06 04:47 48.01725 -49.88229 37221 ft 474 kts 73°
2026-05-06 04:48 48.03108 -49.78597 37219 ft 474 kts 73°
2026-05-06 04:48 48.04484 -49.68969 37220 ft 474 kts 73°
2026-05-06 04:49 48.05866 -49.59309 37220 ft 474 kts 73°
2026-05-06 04:49 48.07223 -49.49724 37221 ft 474 kts 73°
2026-05-06 04:50 48.08581 -49.40093 37219 ft 474 kts 73°
2026-05-06 04:50 48.09942 -49.30435 37226 ft 474 kts 74°
2026-05-06 04:51 48.11281 -49.20779 37224 ft 474 kts 74°
2026-05-06 04:51 48.12612 -49.11136 37224 ft 474 kts 74°
2026-05-06 04:52 48.13935 -49.01457 37224 ft 474 kts 74°
2026-05-06 04:52 48.15243 -48.91830 37226 ft 473 kts 74°
2026-05-06 04:53 48.16555 -48.82170 37221 ft 473 kts 74°
2026-05-06 04:53 48.17863 -48.72486 37231 ft 473 kts 74°
2026-05-06 04:54 48.19152 -48.62822 37227 ft 473 kts 74°
2026-05-06 04:54 48.20430 -48.53141 37231 ft 473 kts 74°
2026-05-06 04:55 48.21704 -48.43463 37229 ft 473 kts 74°
2026-05-06 04:55 48.22971 -48.33841 37230 ft 473 kts 75°
2026-05-06 04:56 48.24227 -48.24165 37230 ft 473 kts 75°
2026-05-06 04:56 48.25474 -48.14462 37228 ft 473 kts 75°
2026-05-06 04:57 48.26717 -48.04757 37228 ft 473 kts 75°
2026-05-06 04:57 48.27952 -47.95056 37228 ft 473 kts 75°
2026-05-06 04:58 48.29185 -47.85325 37225 ft 473 kts 75°
2026-05-06 04:58 48.30395 -47.75657 37223 ft 473 kts 75°
2026-05-06 04:59 48.31598 -47.65926 37227 ft 474 kts 75°
2026-05-06 04:59 48.32798 -47.56191 37232 ft 474 kts 75°
2026-05-06 05:00 48.33999 -47.46454 37232 ft 474 kts 75°
2026-05-06 05:00 48.35191 -47.36709 37231 ft 474 kts 75°
2026-05-06 05:01 48.36371 -47.26941 37233 ft 474 kts 76°
2026-05-06 05:01 48.37543 -47.17163 37223 ft 475 kts 75°
2026-05-06 05:02 48.38705 -47.07457 37224 ft 475 kts 76°
2026-05-06 05:02 48.39859 -46.97661 37229 ft 475 kts 76°
2026-05-06 05:03 48.41009 -46.87862 37225 ft 476 kts 76°
2026-05-06 05:03 48.42156 -46.78034 37223 ft 476 kts 76°
2026-05-06 05:04 48.43288 -46.68203 37222 ft 477 kts 76°
2026-05-06 05:04 48.44422 -46.58333 37224 ft 478 kts 76°
2026-05-06 05:05 48.45545 -46.48456 37224 ft 479 kts 76°
2026-05-06 05:05 48.46653 -46.38624 37221 ft 479 kts 76°
2026-05-06 05:06 48.47754 -46.28712 37226 ft 480 kts 76°
2026-05-06 05:06 48.48850 -46.18793 37228 ft 480 kts 76°
2026-05-06 05:07 48.49943 -46.08855 37223 ft 481 kts 76°
2026-05-06 05:07 48.51035 -45.98898 37220 ft 481 kts 76°
2026-05-06 05:08 48.52124 -45.88917 37220 ft 482 kts 76°
2026-05-06 05:08 48.53202 -45.78929 37221 ft 483 kts 76°
2026-05-06 05:09 48.54249 -45.68971 37236 ft 483 kts 76°
2026-05-06 05:09 48.55299 -45.58951 37239 ft 483 kts 76°
2026-05-06 05:10 48.56350 -45.48932 37238 ft 483 kts 76°
2026-05-06 05:10 48.57388 -45.38914 37242 ft 483 kts 76°
2026-05-06 05:11 48.58420 -45.28897 37244 ft 483 kts 76°
2026-05-06 05:11 48.59447 -45.18850 37243 ft 483 kts 76°
2026-05-06 05:12 48.60451 -45.08821 37239 ft 482 kts 77°
2026-05-06 05:12 48.61446 -44.98800 37235 ft 482 kts 77°
2026-05-06 05:13 48.62447 -44.88788 37240 ft 481 kts 77°
2026-05-06 05:13 48.63436 -44.78854 37254 ft 481 kts 77°
2026-05-06 05:14 48.64405 -44.68819 37245 ft 481 kts 77°
2026-05-06 05:14 48.65362 -44.58807 37244 ft 481 kts 77°
2026-05-06 05:15 48.66320 -44.48797 37245 ft 480 kts 77°
2026-05-06 05:15 48.67264 -44.38815 37247 ft 480 kts 78°
2026-05-06 05:16 48.68201 -44.28802 37246 ft 480 kts 78°
2026-05-06 05:16 48.69132 -44.18805 37244 ft 479 kts 78°
2026-05-06 05:17 48.70043 -44.08876 37245 ft 479 kts 78°
2026-05-06 05:17 48.70951 -43.98889 37245 ft 479 kts 78°
2026-05-06 05:18 48.71856 -43.88913 37241 ft 478 kts 78°
2026-05-06 05:18 48.72749 -43.78930 37235 ft 478 kts 79°
2026-05-06 05:19 48.73628 -43.68948 37235 ft 477 kts 79°
2026-05-06 05:19 48.74498 -43.59029 37240 ft 477 kts 79°
2026-05-06 05:20 48.75356 -43.49062 37235 ft 477 kts 79°
2026-05-06 05:20 48.76206 -43.39086 37234 ft 477 kts 79°
2026-05-06 05:21 48.77055 -43.29086 37234 ft 478 kts 79°
2026-05-06 05:21 48.77903 -43.19080 37156 ft 478 kts 84°
2026-05-06 05:22 48.78742 -43.08968 37227 ft 488 kts 85°
2026-05-06 05:22 48.79572 -42.98790 37225 ft 491 kts 85°
2026-05-06 05:23 48.80410 -42.88499 37226 ft 491 kts 85°
2026-05-06 05:23 48.81504 -42.74808 37227 ft 491 kts 85°
2026-05-06 05:24 48.82327 -42.64530 37223 ft 491 kts 85°
2026-05-06 05:24 48.83257 -42.52553 37217 ft 491 kts 85°
2026-05-06 05:25 48.83919 -42.43936 37224 ft 491 kts 85°
2026-05-06 05:25 48.84707 -42.33648 37220 ft 490 kts 85°
2026-05-06 05:26 48.85472 -42.23420 37224 ft 490 kts 85°
2026-05-06 05:26 48.86240 -42.13136 37220 ft 490 kts 85°
2026-05-06 05:27 48.87004 -42.02847 37222 ft 490 kts 85°
2026-05-06 05:27 48.87750 -41.92563 37225 ft 490 kts 85°
2026-05-06 05:28 48.88485 -41.82275 37222 ft 490 kts 85°
2026-05-06 05:28 48.89214 -41.71991 37221 ft 489 kts 85°
2026-05-06 05:29 48.89934 -41.61702 37220 ft 489 kts 85°
2026-05-06 05:29 48.90645 -41.51415 37210 ft 489 kts 85°
2026-05-06 05:30 48.91336 -41.41206 37217 ft 489 kts 85°
2026-05-06 05:30 48.92024 -41.30921 37216 ft 489 kts 86°
2026-05-06 05:31 48.92699 -41.20635 37221 ft 488 kts 86°
2026-05-06 05:31 48.93370 -41.10360 37219 ft 488 kts 86°
2026-05-06 05:32 48.94040 -41.00068 37214 ft 488 kts 86°
2026-05-06 05:32 48.94699 -40.89810 37215 ft 488 kts 86°
2026-05-06 05:33 48.95345 -40.79535 37217 ft 488 kts 86°
2026-05-06 05:33 48.95971 -40.69257 37210 ft 487 kts 86°
2026-05-06 05:34 48.96590 -40.59054 37217 ft 487 kts 86°
2026-05-06 05:34 48.97214 -40.48722 37212 ft 487 kts 86°
2026-05-06 05:35 48.97820 -40.38536 37220 ft 486 kts 86°
2026-05-06 05:35 48.98416 -40.28280 37214 ft 486 kts 86°
2026-05-06 05:36 48.98992 -40.18031 37219 ft 486 kts 86°
2026-05-06 05:36 48.99565 -40.07790 37214 ft 485 kts 86°
2026-05-06 05:37 49.00350 -39.97578 37215 ft 486 kts 78°
2026-05-06 05:37 49.01821 -39.87541 37427 ft 485 kts 76°
2026-05-06 05:38 49.02551 -39.82526 37238 ft 484 kts 76°
2026-05-06 05:38 49.03270 -39.77533 37185 ft 481 kts 76°
2026-05-06 05:38 49.04695 -39.67580 37184 ft 481 kts 76°
2026-05-06 05:39 49.06114 -39.57602 37187 ft 482 kts 76°
2026-05-06 05:39 49.07516 -39.47671 37190 ft 482 kts 77°
2026-05-06 05:40 49.08916 -39.37655 37195 ft 483 kts 77°
2026-05-06 05:40 49.10316 -39.27631 37194 ft 483 kts 77°
2026-05-06 05:41 49.11713 -39.17608 37195 ft 483 kts 77°
2026-05-06 05:41 49.13092 -39.07556 37197 ft 483 kts 77°
2026-05-06 05:42 49.14462 -38.97498 37194 ft 483 kts 77°
2026-05-06 05:42 49.15818 -38.87510 37192 ft 483 kts 77°
2026-05-06 05:43 49.17184 -38.77441 37190 ft 484 kts 77°
2026-05-06 05:43 49.18534 -38.67370 37193 ft 484 kts 78°
2026-05-06 05:44 49.19865 -38.57298 37186 ft 484 kts 78°
2026-05-06 05:44 49.21195 -38.47193 37185 ft 484 kts 78°
2026-05-06 05:45 49.22516 -38.37083 37187 ft 485 kts 78°
2026-05-06 05:45 49.23827 -38.27022 37191 ft 485 kts 78°
2026-05-06 05:46 49.25143 -38.16897 37178 ft 485 kts 78°
2026-05-06 05:46 49.26445 -38.06759 37192 ft 485 kts 78°
2026-05-06 05:47 49.27733 -37.96609 37181 ft 486 kts 78°
2026-05-06 05:47 49.29015 -37.86447 37184 ft 486 kts 78°
2026-05-06 05:48 49.30294 -37.76272 37189 ft 486 kts 78°
2026-05-06 05:48 49.31555 -37.66159 37194 ft 486 kts 78°
2026-05-06 05:49 49.32811 -37.55965 37198 ft 486 kts 79°
2026-05-06 05:49 49.34056 -37.45784 37195 ft 486 kts 79°
2026-05-06 05:50 49.35298 -37.35574 37203 ft 486 kts 79°
2026-05-06 05:50 49.36530 -37.25366 37198 ft 486 kts 79°
2026-05-06 05:51 49.37758 -37.15152 37206 ft 486 kts 79°
2026-05-06 05:51 49.38976 -37.04953 37206 ft 486 kts 79°
2026-05-06 05:52 49.40168 -36.94798 37209 ft 486 kts 79°
2026-05-06 05:52 49.41361 -36.84585 37209 ft 486 kts 79°
2026-05-06 05:53 49.42552 -36.74368 37205 ft 486 kts 79°
2026-05-06 05:53 49.43723 -36.64127 37207 ft 486 kts 79°
2026-05-06 05:54 49.44887 -36.53886 37210 ft 486 kts 79°
2026-05-06 05:54 49.46047 -36.43663 37198 ft 486 kts 80°
2026-05-06 05:55 49.47196 -36.33419 37207 ft 486 kts 80°
2026-05-06 05:55 49.48338 -36.23159 37204 ft 486 kts 80°
2026-05-06 05:56 49.49464 -36.12976 37204 ft 486 kts 80°
2026-05-06 05:56 49.50589 -36.02709 37204 ft 486 kts 80°
2026-05-06 05:57 49.51700 -35.92455 37199 ft 486 kts 80°
2026-05-06 05:57 49.52799 -35.82193 37192 ft 486 kts 80°
2026-05-06 05:58 49.53896 -35.71924 37192 ft 486 kts 80°
2026-05-06 05:58 49.54988 -35.61655 37183 ft 485 kts 81°
2026-05-06 05:59 49.56061 -35.51445 37194 ft 485 kts 81°
2026-05-06 05:59 49.57126 -35.41194 37188 ft 485 kts 81°
2026-05-06 06:00 49.58187 -35.30921 37192 ft 485 kts 81°
2026-05-06 06:00 49.59231 -35.20627 37193 ft 486 kts 81°
2026-05-06 06:01 49.60265 -35.10346 37183 ft 486 kts 81°
2026-05-06 06:01 49.61294 -35.00040 37191 ft 486 kts 81°
2026-05-06 06:02 49.62314 -34.89750 37191 ft 486 kts 81°
2026-05-06 06:02 49.63329 -34.79447 37192 ft 485 kts 81°
2026-05-06 06:03 49.64335 -34.69143 37189 ft 485 kts 81°
2026-05-06 06:03 49.65325 -34.58906 37189 ft 485 kts 82°
2026-05-06 06:04 49.66306 -34.48609 37186 ft 485 kts 82°
2026-05-06 06:04 49.67285 -34.38304 37168 ft 485 kts 82°
2026-05-06 06:05 49.68252 -34.27998 37179 ft 484 kts 82°
2026-05-06 06:05 49.69213 -34.17709 37177 ft 484 kts 82°
2026-05-06 06:06 49.70160 -34.07392 37176 ft 485 kts 82°
2026-05-06 06:06 49.71089 -33.97086 37174 ft 484 kts 82°
2026-05-06 06:07 49.72005 -33.86829 37174 ft 484 kts 82°
2026-05-06 06:07 49.72920 -33.76512 37177 ft 484 kts 82°
2026-05-06 06:08 49.73836 -33.66188 37177 ft 484 kts 82°
2026-05-06 06:08 49.74737 -33.55868 37174 ft 484 kts 82°
2026-05-06 06:09 49.75628 -33.45552 37171 ft 484 kts 83°
2026-05-06 06:09 49.76509 -33.35218 37169 ft 484 kts 83°
2026-05-06 06:10 49.77375 -33.24958 37169 ft 483 kts 83°
2026-05-06 06:10 49.78237 -33.14637 37164 ft 483 kts 83°
2026-05-06 06:11 49.79086 -33.04331 37159 ft 483 kts 83°
2026-05-06 06:11 49.79932 -32.93989 37156 ft 483 kts 83°
2026-05-06 06:12 49.80774 -32.83671 37155 ft 483 kts 83°
2026-05-06 06:12 49.81597 -32.73411 37156 ft 483 kts 83°
2026-05-06 06:13 49.82408 -32.63077 37156 ft 483 kts 83°
2026-05-06 06:13 49.83207 -32.52728 37151 ft 483 kts 83°
2026-05-06 06:14 49.84003 -32.42387 37150 ft 483 kts 83°
2026-05-06 06:14 49.84792 -32.32062 37146 ft 483 kts 84°
2026-05-06 06:15 49.85441 -32.23463 37138 ft 483 kts 84°
2026-05-06 06:15 49.86212 -32.13129 37138 ft 482 kts 84°
2026-05-06 06:16 49.86976 -32.02797 37127 ft 482 kts 84°
2026-05-06 06:16 49.87724 -31.92463 37122 ft 482 kts 84°
2026-05-06 06:17 49.88467 -31.82127 37113 ft 482 kts 84°
2026-05-06 06:17 49.89200 -31.71849 37109 ft 482 kts 84°
2026-05-06 06:18 49.89921 -31.61499 37109 ft 482 kts 84°
2026-05-06 06:18 49.90634 -31.51155 37101 ft 482 kts 84°
2026-05-06 06:19 49.91341 -31.40810 37095 ft 482 kts 84°
2026-05-06 06:19 49.92038 -31.30460 37096 ft 482 kts 85°
2026-05-06 06:20 49.92730 -31.20085 37093 ft 483 kts 85°
2026-05-06 06:20 49.93407 -31.09779 37090 ft 483 kts 85°
2026-05-06 06:21 49.94078 -30.99404 37094 ft 483 kts 85°
2026-05-06 06:21 49.94735 -30.89015 37089 ft 483 kts 85°
2026-05-06 06:22 49.95382 -30.78623 37087 ft 483 kts 85°
2026-05-06 06:22 49.96019 -30.68249 37086 ft 483 kts 85°
2026-05-06 06:23 49.96651 -30.57861 37080 ft 483 kts 85°
2026-05-06 06:23 49.97283 -30.47476 37077 ft 483 kts 85°
2026-05-06 06:24 49.97898 -30.37154 37078 ft 483 kts 85°
2026-05-06 06:24 49.98509 -30.26696 37080 ft 483 kts 85°
2026-05-06 06:25 49.99093 -30.16362 37073 ft 483 kts 85°
2026-05-06 06:26 49.99981 -30.00785 37072 ft 483 kts 82°
2026-05-06 06:26 50.01378 -29.90580 37072 ft 482 kts 77°
2026-05-06 06:27 50.02858 -29.80410 37067 ft 482 kts 77°
2026-05-06 06:27 50.04312 -29.70224 37074 ft 482 kts 77°
2026-05-06 06:28 50.05754 -29.60025 37074 ft 482 kts 77°
2026-05-06 06:28 50.07191 -29.49838 37080 ft 482 kts 77°
2026-05-06 06:29 50.08616 -29.39742 37080 ft 481 kts 77°
2026-05-06 06:29 50.10041 -29.29551 37085 ft 481 kts 77°
2026-05-06 06:30 50.11454 -29.19365 37086 ft 481 kts 78°
2026-05-06 06:30 50.12853 -29.09178 37086 ft 480 kts 78°
2026-05-06 06:31 50.14250 -28.98983 37089 ft 480 kts 78°
2026-05-06 06:31 50.15637 -28.88809 37095 ft 479 kts 78°
2026-05-06 06:32 50.16997 -28.78683 37094 ft 479 kts 78°
2026-05-06 06:32 50.18353 -28.68532 37100 ft 479 kts 78°
2026-05-06 06:33 50.19706 -28.58352 37102 ft 478 kts 78°
2026-05-06 06:33 50.21042 -28.48188 37107 ft 477 kts 78°
2026-05-06 06:34 50.22374 -28.38022 37106 ft 477 kts 78°
2026-05-06 06:34 50.23689 -28.27943 37112 ft 476 kts 78°
2026-05-06 06:35 50.24998 -28.17805 37114 ft 476 kts 78°
2026-05-06 06:35 50.26301 -28.07656 37116 ft 475 kts 78°
2026-05-06 06:36 50.27594 -27.97517 37116 ft 475 kts 78°
2026-05-06 06:36 50.28865 -27.87398 37120 ft 474 kts 79°
2026-05-06 06:37 50.30128 -27.77278 37121 ft 473 kts 79°
2026-05-06 06:37 50.31395 -27.67191 37127 ft 473 kts 79°
2026-05-06 06:38 50.32647 -27.57099 37127 ft 472 kts 79°
2026-05-06 06:38 50.33873 -27.47066 37132 ft 472 kts 79°
2026-05-06 06:39 50.35096 -27.36954 37130 ft 472 kts 79°
2026-05-06 06:39 50.36315 -27.26879 37138 ft 471 kts 79°
2026-05-06 06:40 50.37529 -27.16794 37142 ft 471 kts 79°
2026-05-06 06:40 50.38728 -27.06708 37141 ft 470 kts 79°
2026-05-06 06:41 50.39911 -26.96632 37147 ft 470 kts 79°
2026-05-06 06:41 50.41078 -26.86632 37147 ft 469 kts 79°
2026-05-06 06:42 50.42250 -26.76571 37150 ft 469 kts 79°
2026-05-06 06:42 50.43417 -26.66491 37153 ft 468 kts 79°
2026-05-06 06:43 50.44567 -26.56431 37155 ft 468 kts 80°
2026-05-06 06:43 50.45703 -26.46393 37156 ft 468 kts 80°
2026-05-06 06:44 50.46838 -26.36327 37156 ft 467 kts 80°
2026-05-06 06:44 50.47957 -26.26273 37157 ft 467 kts 80°
2026-05-06 06:45 50.49055 -26.16287 37163 ft 467 kts 80°
2026-05-06 06:45 50.50158 -26.06230 37161 ft 467 kts 80°
2026-05-06 06:46 50.51251 -25.96176 37160 ft 467 kts 80°
2026-05-06 06:46 50.52339 -25.86108 37166 ft 466 kts 80°
2026-05-06 06:47 50.53416 -25.76078 37173 ft 466 kts 80°
2026-05-06 06:47 50.54476 -25.66078 37176 ft 466 kts 80°
2026-05-06 06:48 50.55529 -25.56034 37177 ft 465 kts 80°
2026-05-06 06:48 50.56573 -25.45991 37178 ft 465 kts 80°
2026-05-06 06:49 50.57611 -25.35950 37181 ft 464 kts 80°
2026-05-06 06:49 50.58635 -25.25923 37183 ft 464 kts 81°
2026-05-06 06:50 50.59653 -25.15906 37183 ft 463 kts 80°
2026-05-06 06:50 50.60668 -25.05909 37186 ft 463 kts 80°
2026-05-06 06:51 50.61668 -24.95905 37184 ft 462 kts 81°
2026-05-06 06:51 50.62654 -24.85887 37187 ft 462 kts 81°
2026-05-06 06:52 50.63622 -24.75957 37189 ft 462 kts 81°
2026-05-06 06:52 50.64590 -24.65959 37190 ft 461 kts 81°
2026-05-06 06:53 50.65553 -24.55963 37185 ft 461 kts 81°
2026-05-06 06:53 50.66511 -24.45973 37188 ft 460 kts 81°
2026-05-06 06:54 50.67456 -24.35978 37191 ft 460 kts 81°
2026-05-06 06:54 50.68385 -24.26003 37193 ft 460 kts 81°
2026-05-06 06:55 50.69305 -24.16036 37192 ft 459 kts 81°
2026-05-06 06:55 50.70214 -24.06142 37191 ft 459 kts 81°
2026-05-06 06:56 50.71121 -23.96181 37192 ft 458 kts 81°
2026-05-06 06:56 50.72021 -23.86247 37192 ft 458 kts 81°
2026-05-06 06:57 50.72900 -23.76307 37194 ft 457 kts 81°
2026-05-06 06:57 50.73769 -23.66371 37191 ft 456 kts 81°
2026-05-06 06:58 50.74637 -23.56447 37190 ft 456 kts 81°
2026-05-06 06:58 50.75494 -23.46536 37187 ft 455 kts 81°
2026-05-06 06:59 50.76342 -23.36644 37187 ft 455 kts 81°
2026-05-06 06:59 50.77181 -23.26741 37181 ft 454 kts 81°
2026-05-06 07:00 50.78011 -23.16846 37182 ft 454 kts 81°
2026-05-06 07:00 50.78824 -23.07011 37180 ft 454 kts 81°
2026-05-06 07:01 50.79641 -22.97114 37179 ft 454 kts 81°
2026-05-06 07:01 50.80444 -22.87218 37174 ft 454 kts 81°
2026-05-06 07:02 50.81231 -22.77331 37172 ft 454 kts 81°
2026-05-06 07:02 50.82018 -22.67418 37176 ft 454 kts 81°
2026-05-06 07:03 50.82794 -22.57516 37173 ft 454 kts 81°
2026-05-06 07:03 50.83566 -22.47608 37172 ft 454 kts 81°
2026-05-06 07:04 50.84326 -22.37763 37172 ft 454 kts 81°
2026-05-06 07:04 50.85078 -22.27840 37172 ft 454 kts 81°
2026-05-06 07:05 50.85821 -22.17924 37169 ft 453 kts 81°
2026-05-06 07:05 50.86553 -22.08008 37172 ft 453 kts 81°
2026-05-06 07:06 50.87280 -21.98086 37170 ft 453 kts 81°
2026-05-06 07:06 50.87995 -21.88241 37169 ft 453 kts 81°
2026-05-06 07:07 50.88710 -21.78311 37165 ft 453 kts 81°
2026-05-06 07:07 50.89404 -21.68403 37162 ft 453 kts 81°
2026-05-06 07:08 50.89982 -21.60156 37159 ft 453 kts 81°
2026-05-06 07:08 50.90675 -21.50232 37160 ft 453 kts 81°
2026-05-06 07:09 50.91350 -21.40301 37161 ft 453 kts 81°
2026-05-06 07:09 50.92018 -21.30392 37161 ft 453 kts 81°
2026-05-06 07:10 50.92685 -21.20462 37160 ft 452 kts 81°
2026-05-06 07:10 50.93329 -21.10608 37158 ft 452 kts 81°
2026-05-06 07:11 50.93972 -21.00670 37159 ft 452 kts 81°
2026-05-06 07:11 50.94604 -20.90746 37152 ft 452 kts 81°
2026-05-06 07:12 50.95231 -20.80815 37154 ft 452 kts 81°
2026-05-06 07:12 50.95851 -20.70877 37160 ft 452 kts 81°
2026-05-06 07:13 50.96462 -20.61003 37155 ft 452 kts 81°
2026-05-06 07:13 50.97054 -20.51073 37153 ft 452 kts 81°
2026-05-06 07:14 50.97641 -20.41151 37155 ft 452 kts 81°
2026-05-06 07:14 50.98231 -20.31222 37155 ft 452 kts 81°
2026-05-06 07:15 50.98809 -20.21297 37155 ft 451 kts 81°
2026-05-06 07:15 50.99367 -20.11446 37154 ft 451 kts 82°
2026-05-06 07:16 50.99915 -20.01534 37157 ft 451 kts 82°
2026-05-06 07:16 51.00287 -19.91542 37157 ft 453 kts 84°
2026-05-06 07:17 51.00444 -19.81562 37159 ft 453 kts 85°
2026-05-06 07:17 51.00570 -19.71548 37159 ft 452 kts 85°
2026-05-06 07:18 51.00743 -19.61574 37161 ft 452 kts 84°
2026-05-06 07:18 51.00933 -19.51680 37158 ft 451 kts 84°
2026-05-06 07:19 51.01105 -19.41659 37157 ft 451 kts 85°
2026-05-06 07:19 51.01262 -19.31758 37158 ft 451 kts 85°
2026-05-06 07:20 51.01415 -19.21810 37157 ft 451 kts 85°
2026-05-06 07:20 51.01551 -19.11869 37155 ft 450 kts 85°
2026-05-06 07:21 51.01685 -19.01915 37157 ft 450 kts 85°
2026-05-06 07:21 51.01809 -18.91983 37160 ft 450 kts 85°
2026-05-06 07:22 51.01930 -18.82111 37156 ft 449 kts 85°
2026-05-06 07:22 51.02045 -18.72186 37153 ft 449 kts 85°
2026-05-06 07:23 51.02136 -18.62258 37157 ft 449 kts 85°
2026-05-06 07:23 51.02219 -18.52332 37155 ft 449 kts 85°
2026-05-06 07:24 51.02304 -18.42425 37154 ft 449 kts 85°
2026-05-06 07:24 51.02382 -18.32506 37155 ft 449 kts 85°
2026-05-06 07:25 51.02453 -18.22649 37159 ft 449 kts 85°
2026-05-06 07:25 51.02508 -18.12728 37156 ft 448 kts 85°
2026-05-06 07:26 51.02554 -18.02824 37157 ft 448 kts 85°
2026-05-06 07:26 51.02599 -17.92943 37153 ft 448 kts 85°
2026-05-06 07:27 51.02635 -17.83058 37153 ft 447 kts 86°
2026-05-06 07:27 51.02654 -17.73174 37155 ft 447 kts 86°
2026-05-06 07:28 51.02663 -17.63293 37156 ft 447 kts 86°
2026-05-06 07:28 51.02672 -17.48555 37153 ft 447 kts 86°
2026-05-06 07:29 51.02674 -17.38671 37156 ft 447 kts 86°
2026-05-06 07:29 51.02653 -17.28817 37152 ft 446 kts 86°
2026-05-06 07:30 51.02632 -17.18949 37157 ft 446 kts 86°
2026-05-06 07:30 51.02602 -17.09083 37155 ft 446 kts 86°
2026-05-06 07:31 51.02559 -16.99225 37153 ft 446 kts 86°
2026-05-06 07:31 51.02514 -16.89442 37155 ft 446 kts 86°
2026-05-06 07:32 51.02469 -16.79603 37147 ft 445 kts 87°
2026-05-06 07:32 51.02412 -16.69763 37144 ft 445 kts 87°
2026-05-06 07:33 51.02330 -16.59915 37148 ft 445 kts 87°
2026-05-06 07:33 51.02244 -16.50080 37137 ft 445 kts 87°
2026-05-06 07:34 51.02161 -16.40246 37135 ft 445 kts 87°
2026-05-06 07:34 51.02070 -16.30413 37136 ft 445 kts 88°
2026-05-06 07:35 51.01960 -16.20574 37134 ft 446 kts 88°
2026-05-06 07:35 51.01843 -16.10794 37135 ft 446 kts 88°
2026-05-06 07:36 51.01722 -16.00965 37129 ft 446 kts 88°
2026-05-06 07:36 51.01602 -15.91117 37130 ft 446 kts 88°
2026-05-06 07:37 51.01470 -15.81257 37128 ft 446 kts 88°
2026-05-06 07:37 51.01316 -15.71397 37127 ft 446 kts 88°
2026-05-06 07:38 51.01151 -15.61531 37131 ft 447 kts 89°
2026-05-06 07:38 51.00986 -15.51675 37131 ft 447 kts 89°
2026-05-06 07:39 51.00819 -15.41819 37126 ft 447 kts 89°
2026-05-06 07:39 51.00640 -15.31938 37124 ft 447 kts 89°
2026-05-06 07:40 51.00466 -15.22132 37121 ft 447 kts 89°
2026-05-06 07:40 51.00268 -15.12238 37122 ft 448 kts 89°
2026-05-06 07:41 51.00049 -15.02364 37121 ft 448 kts 89°
2026-05-06 07:41 50.99926 -14.92475 37115 ft 447 kts 87°
2026-05-06 07:42 51.00006 -14.82608 37115 ft 447 kts 86°
2026-05-06 07:42 51.00095 -14.72794 37112 ft 447 kts 87°
2026-05-06 07:43 51.00128 -14.62900 37112 ft 448 kts 87°
2026-05-06 07:43 51.00125 -14.53000 37111 ft 448 kts 88°
2026-05-06 07:44 51.00111 -14.43091 37108 ft 449 kts 88°
2026-05-06 07:44 51.00098 -14.33173 37106 ft 449 kts 88°
2026-05-06 07:45 51.00083 -14.23326 37107 ft 449 kts 88°
2026-05-06 07:45 51.00052 -14.13403 37103 ft 449 kts 88°
2026-05-06 07:46 51.00010 -14.03477 37107 ft 450 kts 88°
2026-05-06 07:46 51.00056 -13.93557 37106 ft 449 kts 86°
2026-05-06 07:47 51.00319 -13.83643 37105 ft 449 kts 85°
2026-05-06 07:47 51.00619 -13.73786 37103 ft 449 kts 85°
2026-05-06 07:48 51.00863 -13.63866 37103 ft 450 kts 86°
2026-05-06 07:48 51.01062 -13.53938 37102 ft 450 kts 86°
2026-05-06 07:49 51.01248 -13.43972 37103 ft 450 kts 86°
2026-05-06 07:49 51.01434 -13.34025 37102 ft 450 kts 86°
2026-05-06 07:50 51.01621 -13.24144 37100 ft 451 kts 86°
2026-05-06 07:50 51.01802 -13.14174 37101 ft 451 kts 86°
2026-05-06 07:51 51.01969 -13.04199 37103 ft 451 kts 87°
2026-05-06 07:51 51.02124 -12.94247 37100 ft 451 kts 87°
2026-05-06 07:52 51.02272 -12.84328 37099 ft 452 kts 87°
2026-05-06 07:52 51.02414 -12.74359 37099 ft 452 kts 87°
2026-05-06 07:53 51.02548 -12.64375 37098 ft 452 kts 87°
2026-05-06 07:53 51.02678 -12.54379 37096 ft 452 kts 87°
2026-05-06 07:54 51.02802 -12.44382 37094 ft 452 kts 87°
2026-05-06 07:54 51.02908 -12.34393 37096 ft 453 kts 88°
2026-05-06 07:55 51.03001 -12.24456 37091 ft 453 kts 88°
2026-05-06 07:55 51.03087 -12.14447 37093 ft 453 kts 88°
2026-05-06 07:56 51.03177 -12.04421 37090 ft 453 kts 88°
2026-05-06 07:56 51.03256 -11.94418 37090 ft 453 kts 88°
2026-05-06 07:57 51.03325 -11.84391 37091 ft 453 kts 88°
2026-05-06 07:57 51.03376 -11.74441 37086 ft 453 kts 88°
2026-05-06 07:58 51.03427 -11.64422 37084 ft 454 kts 88°
2026-05-06 07:58 51.03465 -11.54406 37086 ft 454 kts 88°
2026-05-06 07:59 51.03487 -11.44359 37084 ft 454 kts 89°
2026-05-06 07:59 51.03509 -11.34341 37080 ft 454 kts 89°
2026-05-06 08:00 51.03527 -11.26011 37084 ft 454 kts 89°
2026-05-06 08:00 51.03535 -11.15954 37084 ft 454 kts 89°
2026-05-06 08:01 51.03536 -11.05898 37069 ft 454 kts 89°
2026-05-06 08:01 51.03529 -10.95915 37072 ft 455 kts 89°
2026-05-06 08:02 51.03509 -10.85866 37081 ft 455 kts 89°
2026-05-06 08:02 51.03475 -10.75802 37074 ft 455 kts 89°
2026-05-06 08:03 51.03433 -10.65758 37072 ft 455 kts 89°
2026-05-06 08:03 51.03388 -10.55704 37069 ft 455 kts 89°
2026-05-06 08:04 51.03344 -10.45644 37065 ft 455 kts 89°
2026-05-06 08:04 51.03291 -10.35589 37068 ft 455 kts 89°
2026-05-06 08:05 51.03218 -10.25519 37064 ft 455 kts 90°
2026-05-06 08:05 51.03134 -10.15508 37064 ft 455 kts 90°
2026-05-06 08:06 51.03041 -10.05453 37063 ft 456 kts 90°
2026-05-06 08:06 51.02945 -9.95369 37060 ft 456 kts 90°
2026-05-06 08:07 51.02835 -9.85305 37057 ft 456 kts 90°
2026-05-06 08:07 51.02718 -9.75234 37053 ft 456 kts 90°
2026-05-06 08:08 51.02598 -9.65177 37052 ft 456 kts 90°
2026-05-06 08:08 51.02470 -9.55085 37051 ft 456 kts 90°
2026-05-06 08:09 51.02331 -9.45005 37046 ft 456 kts 90°
2026-05-06 08:09 51.02182 -9.34990 37046 ft 456 kts 90°
2026-05-06 08:10 51.02026 -9.24895 37049 ft 457 kts 91°
2026-05-06 08:10 51.01856 -9.14801 37044 ft 457 kts 91°
2026-05-06 08:11 51.01680 -9.04713 37047 ft 457 kts 91°
2026-05-06 08:11 51.01500 -8.94698 37043 ft 457 kts 91°
2026-05-06 08:12 51.01310 -8.84609 37044 ft 457 kts 91°
2026-05-06 08:12 51.01102 -8.74518 37043 ft 457 kts 91°
2026-05-06 08:13 51.00897 -8.64435 37043 ft 457 kts 91°
2026-05-06 08:13 51.00680 -8.54354 37039 ft 457 kts 91°
2026-05-06 08:14 51.00452 -8.44258 37037 ft 457 kts 91°
2026-05-06 08:14 51.00216 -8.34155 37037 ft 457 kts 91°
2026-05-06 08:15 51.00530 -8.24129 37036 ft 456 kts 77°
2026-05-06 08:15 51.02484 -8.14662 37036 ft 454 kts 68°
2026-05-06 08:16 51.04738 -8.05278 37039 ft 454 kts 68°
2026-05-06 08:16 51.06977 -7.95882 37037 ft 454 kts 68°
2026-05-06 08:17 51.09197 -7.86479 37039 ft 454 kts 68°
2026-05-06 08:17 51.11416 -7.77042 37043 ft 455 kts 68°
2026-05-06 08:18 51.13634 -7.67614 37042 ft 455 kts 68°
2026-05-06 08:18 51.15837 -7.58245 37044 ft 455 kts 68°
2026-05-06 08:19 51.18036 -7.48796 37042 ft 455 kts 68°
2026-05-06 08:19 51.20229 -7.39329 37040 ft 455 kts 68°
2026-05-06 08:20 51.22413 -7.29848 37042 ft 455 kts 69°
2026-05-06 08:20 51.24598 -7.20359 37044 ft 455 kts 69°
2026-05-06 08:21 51.26778 -7.10856 37041 ft 456 kts 69°
2026-05-06 08:21 51.28940 -7.01394 37042 ft 456 kts 69°
2026-05-06 08:22 51.31109 -6.91840 37048 ft 456 kts 69°
2026-05-06 08:22 51.33264 -6.82292 37042 ft 456 kts 69°
2026-05-06 08:23 51.35406 -6.72749 37041 ft 456 kts 69°
2026-05-06 08:23 51.37533 -6.63240 37031 ft 456 kts 69°
2026-05-06 08:24 51.39665 -6.53671 37035 ft 456 kts 69°
2026-05-06 08:24 51.41790 -6.44090 37036 ft 456 kts 69°
2026-05-06 08:25 51.43915 -6.34487 37030 ft 457 kts 69°
2026-05-06 08:25 51.46031 -6.24875 37035 ft 457 kts 70°
2026-05-06 08:26 51.48116 -6.15313 37039 ft 457 kts 70°
2026-05-06 08:26 51.50204 -6.05682 37033 ft 457 kts 70°
2026-05-06 08:27 51.52294 -5.96041 37033 ft 457 kts 70°
2026-05-06 08:27 51.54375 -5.86397 37043 ft 457 kts 70°
2026-05-06 08:28 51.56445 -5.76742 37032 ft 457 kts 70°
2026-05-06 08:28 51.58505 -5.67078 37036 ft 457 kts 70°